Retour au catalogue

STARLINK-11690

ActifCommunicationsVLEO
NORAD 64242·PAYLOAD·🇺🇸 United States

Lancé Jun 3, 2025 depuis Cape Canaveral Space Force Station

Loading…

Prochains Passages (prochaines 24 heures)

TLE

FraisSource: CelesTrak SupGP

Époque: Sep 15, 2026, 02:34 UTC

1 64242C 25119K   26258.10743056  .00109170  00000+0  84666-3 0  2583
2 64242  43.0004 147.2754 0001673 272.8907 180.6065 15.70820460    13

Suivez STARLINK-11690 en temps réel avec AllMySat

Download on the App Store